| time (UTC) | temp F | wind direction | speed MPH | gust MPH | rain 1hr in | rain 24hr in | rain mn in | humidity % | barometer mb |
| 20260903165638 | 81 | 168 | 0.0 | 1.0 | 0.00 | 0.18 | 0.18 | 77 | 1013.5 |
| 20260903165133 | 80 | 338 | 2.0 | 7.0 | 0.00 | 0.18 | 0.18 | 79 | 1013.4 |
| 20260903164627 | 80 | 266 | 4.0 | 5.0 | 0.00 | 0.18 | 0.18 | 79 | 1013.6 |
| 20260903164124 | 79 | 320 | 3.0 | 3.0 | 0.00 | 0.18 | 0.18 | 81 | 1013.6 |
| 20260903163619 | 79 | 87 | 2.0 | 6.0 | 0.00 | 0.18 | 0.18 | 82 | 1013.6 |
| 20260903163115 | 81 | 246 | 2.0 | 3.0 | 0.00 | 0.18 | 0.18 | 79 | 1013.7 |
| 20260903162611 | 79 | 83 | 2.0 | 3.0 | 0.00 | 0.18 | 0.18 | 84 | 1013.6 |
| 20260903162107 | 79 | 349 | 4.0 | 4.0 | 0.00 | 0.18 | 0.18 | 83 | 1013.7 |
| 20260903161602 | 78 | 27 | 2.0 | 3.0 | 0.00 | 0.18 | 0.18 | 84 | 1013.7 |
| 20260903161057 | 77 | 245 | 1.0 | 4.0 | 0.00 | 0.18 | 0.18 | 84 | 1014.0 |
| 20260903160556 | 78 | 156 | 0.0 | 2.0 | 0.00 | 0.18 | 0.18 | 84 | 1013.9 |
| 20260903160051 | 77 | 253 | 4.0 | 6.0 | 0.00 | 0.18 | 0.18 | 85 | 1013.8 |
| 20260903155550 | 77 | 343 | 0.0 | 2.0 | 0.00 | 0.18 | 0.18 | 87 | 1013.9 |
| 20260903155046 | 76 | 2 | 0.0 | 4.0 | 0.00 | 0.18 | 0.18 | 86 | 1014.2 |
| 20260903154542 | 75 | 2 | 2.0 | 3.0 | 0.00 | 0.18 | 0.18 | 89 | 1014.3 |
| 20260903154038 | 76 | 48 | 1.0 | 2.0 | 0.00 | 0.18 | 0.18 | 88 | 1014.2 |
| 20260903153533 | 76 | 4 | 2.0 | 3.0 | 0.00 | 0.18 | 0.18 | 90 | 1014.5 |
| 20260903153029 | 76 | 264 | 0.0 | 2.0 | 0.00 | 0.18 | 0.18 | 88 | 1014.4 |
| 20260903152525 | 75 | 289 | 1.0 | 2.0 | 0.00 | 0.18 | 0.18 | 89 | 1014.5 |
| 20260903152021 | 74 | 240 | 1.0 | 3.0 | 0.00 | 0.18 | 0.18 | 89 | 1014.5 |
| 20260903151519 | 74 | 228 | 3.0 | 5.0 | 0.00 | 0.18 | 0.18 | 88 | 1014.5 |
| 20260903151014 | 74 | 25 | 0.0 | 3.0 | 0.00 | 0.18 | 0.18 | 91 | 1014.3 |
| 20260903150509 | 73 | 285 | 2.0 | 5.0 | 0.00 | 0.18 | 0.18 | 91 | 1014.5 |
| 20260903150004 | 73 | 201 | 1.0 | 2.0 | 0.00 | 0.18 | 0.18 | 91 | 1014.6 |
| 20260903145459 | 72 | 6 | 0.0 | 3.0 | 0.00 | 0.18 | 0.18 | 92 | 1014.5 |
| 20260903144954 | 72 | 140 | 1.0 | 2.0 | 0.00 | 0.18 | 0.18 | 93 | 1014.3 |
| 20260903144453 | 72 | 210 | 2.0 | 4.0 | 0.00 | 0.18 | 0.18 | 92 | 1014.4 |
| 20260903143949 | 72 | 220 | 4.0 | 4.0 | 0.00 | 0.18 | 0.18 | 92 | 1014.5 |
| 20260903143446 | 73 | 185 | 1.0 | 3.0 | 0.00 | 0.18 | 0.18 | 93 | 1014.4 |
| 20260903142941 | 72 | 290 | 0.0 | 3.0 | 0.00 | 0.18 | 0.18 | 93 | 1014.5 |
| 20260903142436 | 72 | 219 | 0.0 | 2.0 | 0.00 | 0.18 | 0.18 | 93 | 1014.4 |
| 20260903141932 | 72 | 185 | 1.0 | 3.0 | 0.00 | 0.18 | 0.18 | 94 | 1014.3 |
| 20260903141428 | 71 | 110 | 1.0 | 3.0 | 0.00 | 0.18 | 0.18 | 94 | 1014.5 |
| 20260903140924 | 71 | 269 | 4.0 | 6.0 | 0.00 | 0.18 | 0.18 | 94 | 1014.5 |
| 20260903140419 | 71 | 235 | 2.0 | 2.0 | 0.00 | 0.18 | 0.18 | 94 | 1014.2 |
| 20260903135914 | 71 | 171 | 0.0 | 2.0 | 0.00 | 0.18 | 0.18 | 95 | 1014.4 |
| 20260903135410 | 71 | 301 | 0.0 | 3.0 | 0.00 | 0.18 | 0.18 | 95 | 1014.5 |
| 20260903134908 | 71 | 144 | 2.0 | 2.0 | 0.00 | 0.18 | 0.18 | 96 | 1014.4 |
| 20260903134403 | 71 | 156 | 0.0 | 2.0 | 0.00 | 0.18 | 0.18 | 95 | 1014.4 |
| 20260903133901 | 72 | 263 | 1.0 | 3.0 | 0.00 | 0.18 | 0.18 | 94 | 1014.2 |
| 20260903133357 | 72 | 251 | 2.0 | 6.0 | 0.00 | 0.18 | 0.18 | 94 | 1014.2 |
| 20260903132857 | 72 | 223 | 5.0 | 5.0 | 0.00 | 0.18 | 0.18 | 95 | 1014.2 |
| 20260903132353 | 72 | 215 | 0.0 | 0.0 | 0.00 | 0.18 | 0.18 | 96 | 1014.2 |
| 20260903131852 | 71 | 238 | 2.0 | 4.0 | 0.00 | 0.18 | 0.18 | 95 | 1014.0 |
| 20260903131347 | 71 | 194 | 1.0 | 2.0 | 0.00 | 0.18 | 0.18 | 99 | 1014.2 |
| 20260903130846 | 71 | 138 | 0.0 | 2.0 | 0.00 | 0.18 | 0.18 | 99 | 1014.4 |
| 20260903130341 | 70 | 172 | 1.0 | 2.0 | 0.00 | 0.18 | 0.18 | 99 | 1014.3 |
| 20260903125839 | 69 | 157 | 2.0 | 2.0 | 0.00 | 0.18 | 0.18 | 99 | 1014.4 |
| 20260903125335 | 69 | 220 | 0.0 | 2.0 | 0.00 | 0.18 | 0.18 | 99 | 1014.4 |
| 20260903124834 | 69 | 156 | 0.0 | 2.0 | 0.00 | 0.18 | 0.18 | 99 | 1014.5 |
| 20260903124330 | 68 | 165 | 1.0 | 2.0 | 0.00 | 0.18 | 0.18 | 99 | 1014.2 |
| 20260903123828 | 67 | 181 | 1.0 | 1.0 | 0.00 | 0.18 | 0.18 | 99 | 1014.6 |
| 20260903123323 | 68 | 230 | 0.0 | 2.0 | 0.00 | 0.18 | 0.18 | 99 | 1014.9 |
| 20260903122821 | 68 | 230 | 0.0 | 1.0 | 0.00 | 0.18 | 0.18 | 99 | 1014.5 |
| 20260903122317 | 67 | 304 | 0.0 | 1.0 | 0.00 | 0.18 | 0.18 | 99 | 1014.5 |
| 20260903121814 | 67 | 269 | 0.0 | 0.0 | 0.00 | 0.18 | 0.18 | 99 | 1014.4 |
| 20260903121311 | 67 | 299 | 0.0 | 0.0 | 0.00 | 0.18 | 0.18 | 99 | 1014.4 |
| 20260903120806 | 67 | 269 | 0.0 | 0.0 | 0.00 | 0.18 | 0.18 | 99 | 1014.1 |
| 20260903120300 | 67 | 293 | 0.0 | 1.0 | 0.00 | 0.18 | 0.18 | 99 | 1014.1 |
| 20260903115758 | 67 | 89 | 0.0 | 0.0 | 0.00 | 0.18 | 0.18 | 99 | 1014.1 |
| 20260903115254 | 67 | 89 | 0.0 | 1.0 | 0.00 | 0.18 | 0.18 | 99 | 1014.1 |
| 20260903114748 | 66 | 269 | 0.0 | 1.0 | 0.00 | 0.18 | 0.18 | 99 | 1014.1 |
| 20260903114244 | 66 | 313 | 0.0 | 1.0 | 0.00 | 0.18 | 0.18 | 99 | 1014.2 |
| 20260903113739 | 65 | 89 | 0.0 | 1.0 | 0.00 | 0.18 | 0.18 | 99 | 1014.1 |
| 20260903113235 | 64 | 199 | 0.0 | 1.0 | 0.00 | 0.18 | 0.18 | 99 | 1014.2 |
| 20260903112731 | 64 | 283 | 0.0 | 1.0 | 0.00 | 0.18 | 0.18 | 99 | 1014.1 |
| 20260903112226 | 64 | 319 | 1.0 | 2.0 | 0.00 | 0.18 | 0.18 | 99 | 1013.9 |
| 20260903111725 | 64 | 330 | 2.0 | 2.0 | 0.00 | 0.18 | 0.18 | 99 | 1013.8 |
| 20260903111220 | 64 | 294 | 0.0 | 1.0 | 0.00 | 0.18 | 0.18 | 99 | 1013.9 |
| 20260903110716 | 64 | 330 | 0.0 | 1.0 | 0.00 | 0.18 | 0.18 | 99 | 1013.8 |
| 20260903110212 | 64 | 280 | 0.0 | 1.0 | 0.00 | 0.18 | 0.18 | 99 | 1013.6 |
| 20260903105711 | 64 | 269 | 0.0 | 1.0 | 0.00 | 0.18 | 0.18 | 99 | 1013.7 |
| 20260903105207 | 64 | 283 | 0.0 | 1.0 | 0.00 | 0.18 | 0.18 | 99 | 1013.6 |
| 20260903104706 | 64 | 302 | 1.0 | 1.0 | 0.00 | 0.18 | 0.18 | 99 | 1013.9 |
| 20260903104202 | 64 | 309 | 0.0 | 2.0 | 0.00 | 0.18 | 0.18 | 99 | 1013.8 |
| 20260903103657 | 64 | 321 | 1.0 | 2.0 | 0.00 | 0.18 | 0.18 | 99 | 1013.9 |
| 20260903103154 | 64 | 300 | 1.0 | 2.0 | 0.00 | 0.18 | 0.18 | 99 | 1013.9 |
| 20260903102653 | 64 | 29 | 0.0 | 2.0 | 0.00 | 0.18 | 0.18 | 99 | 1013.6 |
| 20260903102148 | 64 | 332 | 2.0 | 2.0 | 0.00 | 0.18 | 0.18 | 99 | 1013.9 |
| 20260903101647 | 64 | 322 | 0.0 | 1.0 | 0.00 | 0.18 | 0.18 | 99 | 1013.7 |
| 20260903101143 | 65 | 294 | 1.0 | 1.0 | 0.00 | 0.18 | 0.18 | 99 | 1013.9 |
| 20260903100638 | 65 | 335 | 1.0 | 2.0 | 0.00 | 0.18 | 0.18 | 99 | 1013.9 |
| 20260903100137 | 65 | 299 | 0.0 | 1.0 | 0.00 | 0.18 | 0.18 | 99 | 1013.9 |
| 20260903095634 | 65 | 352 | 0.0 | 2.0 | 0.00 | 0.18 | 0.18 | 99 | 1013.9 |
| 20260903095129 | 65 | 335 | 1.0 | 2.0 | 0.00 | 0.18 | 0.18 | 99 | 1013.8 |
| 20260903094624 | 65 | 301 | 0.0 | 0.0 | 0.00 | 0.18 | 0.18 | 99 | 1014.2 |
| 20260903094119 | 65 | 309 | 0.0 | 2.0 | 0.00 | 0.18 | 0.18 | 99 | 1014.0 |
| 20260903093614 | 65 | 287 | 2.0 | 2.0 | 0.02 | 0.18 | 0.18 | 99 | 1013.8 |
| 20260903093110 | 65 | 239 | 2.0 | 2.0 | 0.00 | 0.18 | 0.18 | 99 | 1014.1 |
| 20260903092609 | 65 | 299 | 0.0 | 1.0 | 0.00 | 0.18 | 0.18 | 99 | 1014.2 |
| 20260903092104 | 65 | 329 | 1.0 | 2.0 | 0.00 | 0.18 | 0.18 | 99 | 1014.4 |
| 20260903091602 | 65 | 38 | 0.0 | 1.0 | 0.33 | 0.18 | 0.18 | 99 | 1014.0 |
| 20260903091057 | 65 | 82 | 0.0 | 2.0 | 0.40 | 0.18 | 0.18 | 99 | 1014.2 |
| 20260903090553 | 65 | 248 | 2.0 | 2.0 | 0.02 | 0.12 | 0.12 | 99 | 1014.4 |
| 20260903090051 | 65 | 45 | 1.0 | 2.0 | 0.00 | 0.11 | 0.11 | 99 | 1014.3 |
| 20260903085550 | 65 | 287 | 0.0 | 2.0 | 0.00 | 0.11 | 0.11 | 99 | 1014.0 |
| 20260903085046 | 65 | 250 | 2.0 | 2.0 | 0.00 | 0.11 | 0.11 | 99 | 1014.0 |
| 20260903084544 | 65 | 287 | 2.0 | 2.0 | 0.00 | 0.11 | 0.11 | 99 | 1013.9 |
| 20260903084039 | 65 | 318 | 2.0 | 3.0 | 0.00 | 0.11 | 0.11 | 99 | 1013.9 |
| 20260903083535 | 65 | 301 | 2.0 | 2.0 | 0.00 | 0.11 | 0.11 | 99 | 1013.8 |
| 20260903083034 | 65 | 348 | 2.0 | 2.0 | 0.00 | 0.11 | 0.11 | 99 | 1013.5 |
| 20260903082528 | 65 | 352 | 0.0 | 0.0 | 0.00 | 0.11 | 0.11 | 99 | 1013.9 |
| 20260903082024 | 65 | 64 | 0.0 | 1.0 | 0.00 | 0.11 | 0.11 | 99 | 1014.2 |
| 20260903081519 | 65 | 351 | 0.0 | 2.0 | 0.00 | 0.11 | 0.11 | 99 | 1014.2 |
| 20260903081015 | 65 | 147 | 0.0 | 1.0 | 0.00 | 0.11 | 0.11 | 99 | 1014.0 |
| 20260903080511 | 65 | 345 | 0.0 | 0.0 | 0.00 | 0.11 | 0.11 | 99 | 1014.0 |
| 20260903080008 | 65 | 309 | 0.0 | 2.0 | 0.00 | 0.11 | 0.11 | 99 | 1013.9 |
| 20260903075502 | 65 | 188 | 0.0 | 0.0 | 0.00 | 0.11 | 0.11 | 99 | 1013.9 |
| 20260903074957 | 65 | 157 | 0.0 | 1.0 | 0.00 | 0.11 | 0.11 | 99 | 1013.8 |
| 20260903074456 | 65 | 0 | 0.0 | 1.0 | 0.00 | 0.11 | 0.11 | 99 | 1014.3 |
| 20260903073952 | 65 | 283 | 0.0 | 2.0 | 0.00 | 0.11 | 0.11 | 99 | 1014.1 |
| 20260903073447 | 65 | 230 | 1.0 | 2.0 | 0.00 | 0.11 | 0.11 | 99 | 1014.2 |
| 20260903072942 | 65 | 293 | 0.0 | 0.0 | 0.00 | 0.11 | 0.11 | 99 | 1014.3 |
| 20260903072438 | 65 | 66 | 0.0 | 1.0 | 0.00 | 0.11 | 0.11 | 99 | 1014.2 |
| 20260903071935 | 65 | 68 | 0.0 | 1.0 | 0.00 | 0.11 | 0.11 | 99 | 1014.1 |
| 20260903071431 | 65 | 16 | 1.0 | 2.0 | 0.00 | 0.11 | 0.11 | 99 | 1013.9 |
| 20260903070926 | 65 | 58 | 1.0 | 2.0 | 0.00 | 0.11 | 0.11 | 99 | 1014.0 |
| 20260903070425 | 65 | 18 | 2.0 | 2.0 | 0.00 | 0.11 | 0.11 | 99 | 1013.9 |
| 20260903065920 | 65 | 14 | 1.0 | 2.0 | 0.00 | 0.11 | 0.11 | 99 | 1014.0 |
| 20260903065415 | 65 | 61 | 1.0 | 2.0 | 0.00 | 0.11 | 0.11 | 99 | 1013.8 |
| 20260903064914 | 65 | 117 | 2.0 | 3.0 | 0.00 | 0.11 | 0.11 | 99 | 1014.3 |
| 20260903064410 | 65 | 269 | 0.0 | 2.0 | 0.00 | 0.11 | 0.11 | 99 | 1014.4 |
| 20260903063906 | 65 | 50 | 0.0 | 1.0 | 0.00 | 0.11 | 0.11 | 99 | 1014.0 |
| 20260903063401 | 65 | 37 | 0.0 | 2.0 | 0.00 | 0.11 | 0.11 | 99 | 1014.0 |
| 20260903062856 | 65 | 17 | 2.0 | 2.0 | 0.00 | 0.11 | 0.11 | 99 | 1014.2 |
| 20260903062355 | 65 | 328 | 2.0 | 3.0 | 0.00 | 0.11 | 0.11 | 99 | 1014.3 |
| 20260903061852 | 65 | 322 | 1.0 | 2.0 | 0.00 | 0.11 | 0.11 | 99 | 1014.2 |
| 20260903061351 | 65 | 288 | 2.0 | 2.0 | 0.00 | 0.11 | 0.11 | 99 | 1014.4 |
| 20260903060847 | 65 | 29 | 0.0 | 2.0 | 0.00 | 0.11 | 0.11 | 99 | 1014.5 |
| 20260903060346 | 65 | 19 | 2.0 | 2.0 | 0.00 | 0.11 | 0.11 | 99 | 1014.9 |
| 20260903055844 | 65 | 23 | 1.0 | 2.0 | 0.00 | 0.11 | 0.11 | 99 | 1015.1 |
| 20260903055342 | 65 | 66 | 0.0 | 1.0 | 0.00 | 0.11 | 0.11 | 99 | 1014.9 |
| 20260903054838 | 65 | 355 | 1.0 | 2.0 | 0.00 | 0.11 | 0.11 | 99 | 1014.7 |
| 20260903054338 | 65 | 24 | 2.0 | 2.0 | 0.00 | 0.11 | 0.11 | 99 | 1014.2 |
| 20260903053834 | 65 | 86 | 1.0 | 2.0 | 0.00 | 0.11 | 0.11 | 99 | 1014.3 |
| 20260903053329 | 65 | 333 | 0.0 | 2.0 | 0.00 | 0.11 | 0.11 | 99 | 1014.4 |
| 20260903052825 | 65 | 89 | 0.0 | 2.0 | 0.00 | 0.11 | 0.11 | 99 | 1014.4 |
| 20260903052320 | 65 | 89 | 0.0 | 2.0 | 0.00 | 0.11 | 0.11 | 99 | 1014.3 |
| 20260903051816 | 65 | 269 | 0.0 | 1.0 | 0.00 | 0.11 | 0.11 | 99 | 1014.4 |
| 20260903051311 | 65 | 92 | 3.0 | 4.0 | 0.00 | 0.11 | 0.11 | 99 | 1014.4 |
| 20260903050807 | 66 | 275 | 1.0 | 2.0 | 0.00 | 0.11 | 0.11 | 99 | 1014.6 |
| 20260903050306 | 66 | 309 | 4.0 | 4.0 | 0.00 | 0.11 | 0.11 | 99 | 1014.7 |
| 20260903045800 | 66 | 346 | 2.0 | 2.0 | 0.02 | 0.11 | 0.11 | 99 | 1014.5 |
| 20260903045256 | 66 | 184 | 2.0 | 6.0 | 0.05 | 0.11 | 0.11 | 99 | 1014.7 |
| 20260903044753 | 66 | 269 | 0.0 | 3.0 | 0.05 | 0.11 | 0.11 | 99 | 1014.9 |
| 20260903044247 | 66 | 136 | 4.0 | 6.0 | 0.12 | 0.11 | 0.11 | 99 | 1014.6 |
| 20260903043744 | 66 | 285 | 5.0 | 9.0 | 0.14 | 0.10 | 0.10 | 99 | 1014.5 |
| 20260903043244 | 66 | 94 | 0.0 | 2.0 | 0.12 | 0.09 | 0.09 | 99 | 1015.0 |
| 20260903042743 | 66 | 245 | 0.0 | 5.0 | 0.12 | 0.07 | 0.07 | 99 | 1015.6 |
| 20260903042238 | 66 | 281 | 2.0 | 5.0 | 0.19 | 0.06 | 0.06 | 99 | 1015.7 |
| 20260903041734 | 66 | 172 | 1.0 | 4.0 | 0.21 | 0.05 | 0.05 | 99 | 1016.2 |
| 20260903041230 | 66 | 328 | 0.0 | 3.0 | 0.19 | 0.03 | 0.03 | 99 | 1016.3 |
| 20260903040724 | 66 | 97 | 2.0 | 2.0 | 0.12 | 0.01 | 0.01 | 99 | 1016.8 |
| 20260903040219 | 67 | 261 | 1.0 | 2.0 | 0.31 | 0.00 | 0.00 | 99 | 1016.6 |
| 20260903035715 | 67 | 13 | 2.0 | 7.0 | 0.94 | 0.90 | 0.90 | 99 | 1017.0 |
| 20260903035205 | 67 | 8 | 2.0 | 5.0 | 0.78 | 0.86 | 0.86 | 99 | 1017.2 |
| 20260903034700 | 67 | 18 | 4.0 | 6.0 | 0.12 | 0.74 | 0.74 | 99 | 1016.6 |
| 20260903034154 | 67 | 291 | 3.0 | 4.0 | 0.05 | 0.73 | 0.73 | 99 | 1015.9 |
| 20260903033649 | 67 | 280 | 6.0 | 6.0 | 0.05 | 0.72 | 0.72 | 99 | 1015.1 |
| 20260903033144 | 67 | 2 | 1.0 | 2.0 | 0.09 | 0.72 | 0.72 | 99 | 1014.3 |
| 20260903032639 | 67 | 121 | 2.0 | 2.0 | 0.12 | 0.71 | 0.71 | 99 | 1014.6 |
| 20260903032134 | 67 | 252 | 0.0 | 2.0 | 0.12 | 0.70 | 0.70 | 99 | 1015.0 |
| 20260903031630 | 68 | 72 | 1.0 | 2.0 | 0.14 | 0.69 | 0.69 | 99 | 1015.2 |
| 20260903031130 | 68 | 345 | 0.0 | 1.0 | 0.17 | 0.68 | 0.68 | 99 | 1015.3 |
| 20260903030626 | 67 | 26 | 0.0 | 3.0 | 0.19 | 0.67 | 0.67 | 99 | 1015.3 |
| 20260903030121 | 67 | 337 | 0.0 | 4.0 | 0.24 | 0.65 | 0.65 | 99 | 1015.2 |
| 20260903025616 | 68 | 54 | 1.0 | 2.0 | 0.24 | 0.63 | 0.63 | 99 | 1015.4 |
| 20260903025113 | 67 | 283 | 0.0 | 2.0 | 0.21 | 0.61 | 0.61 | 99 | 1015.7 |
| 20260903024613 | 67 | 19 | 2.0 | 2.0 | 0.21 | 0.59 | 0.59 | 99 | 1016.2 |
| 20260903024107 | 67 | 11 | 0.0 | 2.0 | 0.24 | 0.57 | 0.57 | 99 | 1016.7 |
| 20260903023603 | 67 | 103 | 1.0 | 2.0 | 0.24 | 0.56 | 0.56 | 99 | 1017.0 |
| 20260903023057 | 67 | 224 | 0.0 | 2.0 | 0.26 | 0.54 | 0.54 | 99 | 1016.8 |
| 20260903022557 | 67 | 313 | 2.0 | 3.0 | 0.21 | 0.51 | 0.51 | 99 | 1016.7 |
| 20260903022056 | 66 | 256 | 2.0 | 4.0 | 0.14 | 0.48 | 0.48 | 99 | 1016.3 |
| 20260903021550 | 66 | 136 | 0.0 | 3.0 | 0.14 | 0.47 | 0.47 | 99 | 1016.5 |
| 20260903021045 | 67 | 41 | 1.0 | 2.0 | 0.17 | 0.46 | 0.46 | 99 | 1016.6 |
| 20260903020541 | 67 | 118 | 3.0 | 6.0 | 1.32 | 0.45 | 0.45 | 99 | 1016.3 |
| 20260903020040 | 67 | 29 | 1.0 | 7.0 | 1.39 | 0.43 | 0.43 | 99 | 1016.8 |
| 20260903015536 | 68 | 318 | 4.0 | 11.0 | 0.42 | 0.27 | 0.27 | 99 | 1018.0 |
| 20260903015031 | 69 | 9 | 6.0 | 9.0 | 0.00 | 0.20 | 0.20 | 99 | 1017.6 |
| 20260903014530 | 69 | 49 | 2.0 | 2.0 | 0.00 | 0.20 | 0.20 | 99 | 1016.3 |
| 20260903014026 | 69 | 0 | 2.0 | 3.0 | 0.02 | 0.20 | 0.20 | 99 | 1016.1 |
| 20260903013525 | 69 | 285 | 1.0 | 2.0 | 0.05 | 0.20 | 0.20 | 99 | 1015.8 |
| 20260903013020 | 70 | 312 | 0.0 | 3.0 | 0.05 | 0.20 | 0.20 | 99 | 1015.6 |
| 20260903012519 | 70 | 264 | 0.0 | 1.0 | 0.05 | 0.19 | 0.19 | 99 | 1016.1 |
| 20260903012018 | 70 | 247 | 1.0 | 2.0 | 0.07 | 0.19 | 0.19 | 99 | 1016.1 |
| 20260903011513 | 70 | 223 | 3.0 | 5.0 | 0.07 | 0.18 | 0.18 | 99 | 1016.0 |
| 20260903011009 | 70 | 269 | 4.0 | 4.0 | 0.02 | 0.18 | 0.18 | 98 | 1015.7 |
| 20260903010504 | 70 | 224 | 1.0 | 6.0 | 0.00 | 0.17 | 0.17 | 98 | 1015.7 |
| 20260903010002 | 70 | 230 | 3.0 | 4.0 | 0.00 | 0.17 | 0.17 | 98 | 1015.7 |
| 20260903005456 | 70 | 225 | 3.0 | 3.0 | 0.00 | 0.17 | 0.17 | 98 | 1015.3 |
| 20260903004952 | 70 | 237 | 4.0 | 5.0 | 0.00 | 0.17 | 0.17 | 98 | 1015.2 |
| 20260903004447 | 71 | 186 | 2.0 | 4.0 | 0.02 | 0.17 | 0.17 | 98 | 1014.7 |
| 20260903003943 | 71 | 115 | 3.0 | 3.0 | 0.05 | 0.17 | 0.17 | 97 | 1014.9 |
| 20260903003442 | 71 | 132 | 3.0 | 5.0 | 0.02 | 0.17 | 0.17 | 96 | 1015.2 |
| 20260903002937 | 71 | 48 | 4.0 | 4.0 | 0.00 | 0.17 | 0.17 | 96 | 1014.9 |
| 20260903002427 | 71 | 165 | 4.0 | 4.0 | 0.00 | 0.17 | 0.17 | 96 | 1014.9 |
| 20260903001926 | 71 | 28 | 2.0 | 3.0 | 0.00 | 0.17 | 0.17 | 96 | 1015.1 |
| 20260903001426 | 71 | 321 | 2.0 | 4.0 | 0.00 | 0.17 | 0.17 | 95 | 1015.2 |
| 20260903000925 | 71 | 250 | 3.0 | 4.0 | 0.00 | 0.17 | 0.17 | 95 | 1015.4 |
| 20260903000421 | 71 | 246 | 3.0 | 6.0 | 0.00 | 0.17 | 0.17 | 96 | 1015.1 |
| 20260902235919 | 71 | 315 | 0.0 | 3.0 | 0.00 | 0.17 | 0.17 | 96 | 1014.9 |
| 20260902235414 | 71 | 263 | 2.0 | 5.0 | 0.00 | 0.17 | 0.17 | 96 | 1015.2 |
| 20260902234909 | 72 | 272 | 2.0 | 4.0 | 0.00 | 0.17 | 0.17 | 96 | 1015.4 |
| 20260902234404 | 72 | 320 | 2.0 | 3.0 | 0.00 | 0.17 | 0.17 | 96 | 1015.2 |
| 20260902233902 | 72 | 285 | 0.0 | 3.0 | 0.00 | 0.17 | 0.17 | 96 | 1015.6 |
| 20260902233357 | 72 | 269 | 0.0 | 2.0 | 0.00 | 0.17 | 0.17 | 96 | 1015.5 |
| 20260902232855 | 72 | 284 | 1.0 | 2.0 | 0.00 | 0.17 | 0.17 | 96 | 1015.3 |
| 20260902232351 | 72 | 89 | 0.0 | 0.0 | 0.00 | 0.17 | 0.17 | 96 | 1015.2 |
| 20260902231850 | 72 | 226 | 3.0 | 6.0 | 0.00 | 0.17 | 0.17 | 95 | 1015.5 |
| 20260902231345 | 72 | 37 | 0.0 | 2.0 | 0.00 | 0.17 | 0.17 | 96 | 1015.2 |
| 20260902230840 | 72 | 45 | 2.0 | 3.0 | 0.00 | 0.17 | 0.17 | 95 | 1015.3 |
| 20260902230340 | 72 | 157 | 2.0 | 3.0 | 0.00 | 0.17 | 0.17 | 95 | 1015.3 |
| 20260902225839 | 72 | 236 | 0.0 | 2.0 | 0.00 | 0.17 | 0.17 | 95 | 1015.0 |
| 20260902225335 | 72 | 129 | 1.0 | 5.0 | 0.00 | 0.17 | 0.17 | 95 | 1014.9 |
| 20260902224833 | 72 | 157 | 0.0 | 2.0 | 0.00 | 0.17 | 0.17 | 96 | 1014.7 |
| 20260902224328 | 72 | 239 | 2.0 | 4.0 | 0.00 | 0.17 | 0.17 | 95 | 1014.9 |
| 20260902223825 | 72 | 118 | 1.0 | 4.0 | 0.00 | 0.17 | 0.17 | 95 | 1014.7 |
| 20260902223320 | 72 | 156 | 0.0 | 3.0 | 0.00 | 0.17 | 0.17 | 95 | 1014.9 |
| 20260902222819 | 72 | 182 | 3.0 | 3.0 | 0.00 | 0.17 | 0.17 | 95 | 1014.6 |
| 20260902222318 | 72 | 154 | 2.0 | 5.0 | 0.00 | 0.17 | 0.17 | 96 | 1014.7 |
| 20260902221812 | 72 | 128 | 2.0 | 2.0 | 0.00 | 0.17 | 0.17 | 95 | 1014.9 |
| 20260902221312 | 72 | 153 | 1.0 | 10.0 | 0.00 | 0.17 | 0.17 | 96 | 1015.1 |
| 20260902220808 | 72 | 249 | 0.0 | 3.0 | 0.00 | 0.17 | 0.17 | 96 | 1015.1 |
| 20260902220307 | 72 | 132 | 3.0 | 6.0 | 0.00 | 0.17 | 0.17 | 96 | 1015.2 |
| 20260902215802 | 73 | 116 | 0.0 | 5.0 | 0.00 | 0.17 | 0.17 | 95 | 1015.5 |
| 20260902215257 | 73 | 59 | 1.0 | 5.0 | 0.00 | 0.17 | 0.17 | 95 | 1015.5 |
| 20260902214753 | 72 | 334 | 0.0 | 4.0 | 0.00 | 0.17 | 0.17 | 95 | 1015.3 |
| 20260902214252 | 72 | 117 | 0.0 | 4.0 | 0.00 | 0.17 | 0.17 | 97 | 1015.7 |
| 20260902213748 | 72 | 98 | 1.0 | 4.0 | 0.00 | 0.17 | 0.17 | 96 | 1015.7 |
| 20260902213248 | 72 | 184 | 1.0 | 2.0 | 0.00 | 0.17 | 0.17 | 97 | 1015.7 |
| 20260902212747 | 72 | 235 | 0.0 | 3.0 | 0.00 | 0.17 | 0.17 | 96 | 1015.8 |
| 20260902212244 | 72 | 236 | 0.0 | 2.0 | 0.00 | 0.17 | 0.17 | 96 | 1016.0 |
| 20260902211739 | 72 | 35 | 2.0 | 2.0 | 0.00 | 0.17 | 0.17 | 96 | 1015.7 |
| 20260902211235 | 72 | 97 | 0.0 | 3.0 | 0.00 | 0.17 | 0.17 | 96 | 1015.5 |
| 20260902210729 | 72 | 192 | 1.0 | 2.0 | 0.00 | 0.17 | 0.17 | 96 | 1016.0 |
| 20260902210224 | 72 | 204 | 3.0 | 7.0 | 0.00 | 0.17 | 0.17 | 95 | 1015.9 |
| 20260902205722 | 73 | 206 | 3.0 | 5.0 | 0.00 | 0.17 | 0.17 | 95 | 1015.9 |
| 20260902205218 | 72 | 240 | 3.0 | 9.0 | 0.00 | 0.17 | 0.17 | 95 | 1016.1 |
| 20260902204713 | 73 | 265 | 2.0 | 10.0 | 0.00 | 0.17 | 0.17 | 96 | 1016.2 |
| 20260902204208 | 73 | 257 | 4.0 | 4.0 | 0.00 | 0.17 | 0.17 | 96 | 1016.0 |
| 20260902203703 | 73 | 186 | 0.0 | 5.0 | 0.00 | 0.17 | 0.17 | 96 | 1015.7 |
| 20260902203158 | 73 | 207 | 0.0 | 6.0 | 0.00 | 0.17 | 0.17 | 96 | 1015.6 |
| 20260902202653 | 72 | 114 | 1.0 | 4.0 | 0.00 | 0.17 | 0.17 | 97 | 1015.6 |
| 20260902202150 | 72 | 58 | 1.0 | 2.0 | 0.00 | 0.17 | 0.17 | 96 | 1015.9 |
| 20260902201646 | 72 | 146 | 1.0 | 4.0 | 0.00 | 0.17 | 0.17 | 96 | 1015.7 |
| 20260902201144 | 72 | 132 | 0.0 | 4.0 | 0.00 | 0.17 | 0.17 | 97 | 1015.6 |
| 20260902200639 | 72 | 144 | 1.0 | 6.0 | 0.00 | 0.17 | 0.17 | 97 | 1015.9 |
| 20260902200136 | 72 | 141 | 4.0 | 6.0 | 0.00 | 0.17 | 0.17 | 97 | 1015.8 |
| 20260902195631 | 72 | 236 | 4.0 | 4.0 | 0.00 | 0.17 | 0.17 | 97 | 1016.1 |
| 20260902195130 | 72 | 214 | 0.0 | 4.0 | 0.00 | 0.17 | 0.17 | 98 | 1016.3 |
| 20260902194629 | 72 | 337 | 0.0 | 2.0 | 0.00 | 0.17 | 0.17 | 98 | 1016.6 |
| 20260902194124 | 72 | 346 | 2.0 | 3.0 | 0.00 | 0.17 | 0.17 | 97 | 1016.4 |
| 20260902193621 | 72 | 265 | 3.0 | 4.0 | 0.00 | 0.17 | 0.17 | 97 | 1016.3 |
| 20260902193120 | 72 | 238 | 3.0 | 4.0 | 0.00 | 0.17 | 0.17 | 97 | 1016.3 |
| 20260902192619 | 72 | 67 | 2.0 | 3.0 | 0.00 | 0.17 | 0.17 | 98 | 1016.5 |
| 20260902192118 | 72 | 209 | 1.0 | 2.0 | 0.00 | 0.17 | 0.17 | 98 | 1016.6 |
| 20260902191613 | 72 | 301 | 1.0 | 2.0 | 0.00 | 0.17 | 0.17 | 98 | 1016.6 |
| 20260902191107 | 72 | 227 | 0.0 | 3.0 | 0.00 | 0.17 | 0.17 | 97 | 1016.8 |
| 20260902190603 | 72 | 256 | 1.0 | 2.0 | 0.00 | 0.17 | 0.17 | 97 | 1016.7 |
| 20260902190058 | 72 | 269 | 0.0 | 2.0 | 0.00 | 0.17 | 0.17 | 97 | 1016.7 |
| 20260902185554 | 72 | 139 | 2.0 | 4.0 | 0.00 | 0.17 | 0.17 | 97 | 1016.7 |
| 20260902185050 | 72 | 146 | 0.0 | 2.0 | 0.00 | 0.17 | 0.17 | 98 | 1016.6 |
| 20260902184544 | 71 | 315 | 0.0 | 0.0 | 0.00 | 0.17 | 0.17 | 98 | 1016.6 |
| 20260902184040 | 71 | 330 | 2.0 | 2.0 | 0.00 | 0.17 | 0.17 | 99 | 1016.4 |
| 20260902183537 | 71 | 252 | 0.0 | 2.0 | 0.00 | 0.17 | 0.17 | 98 | 1016.6 |
| 20260902183033 | 71 | 335 | 2.0 | 3.0 | 0.00 | 0.17 | 0.17 | 98 | 1016.5 |
| 20260902182528 | 71 | 112 | 3.0 | 4.0 | 0.00 | 0.17 | 0.17 | 98 | 1016.5 |
| 20260902182024 | 71 | 225 | 2.0 | 4.0 | 0.00 | 0.17 | 0.17 | 98 | 1016.6 |
| 20260902181520 | 71 | 106 | 3.0 | 4.0 | 0.00 | 0.17 | 0.17 | 98 | 1016.5 |
| 20260902181014 | 71 | 252 | 1.0 | 3.0 | 0.00 | 0.17 | 0.17 | 99 | 1016.7 |
| 20260902180514 | 71 | 165 | 1.0 | 5.0 | 0.00 | 0.17 | 0.17 | 98 | 1016.8 |
| 20260902180010 | 71 | 218 | 2.0 | 4.0 | 0.00 | 0.17 | 0.17 | 97 | 1017.0 |
| 20260902175505 | 71 | 256 | 2.0 | 4.0 | 0.00 | 0.17 | 0.17 | 98 | 1017.0 |
| 20260902175001 | 71 | 303 | 2.0 | 8.0 | 0.00 | 0.17 | 0.17 | 97 | 1017.2 |
| 20260902174457 | 72 | 131 | 2.0 | 3.0 | 0.00 | 0.17 | 0.17 | 98 | 1017.2 |
| 20260902173952 | 71 | 248 | 3.0 | 4.0 | 0.00 | 0.17 | 0.17 | 98 | 1017.2 |
| 20260902173452 | 72 | 64 | 2.0 | 2.0 | 0.00 | 0.17 | 0.17 | 99 | 1017.3 |
| 20260902172947 | 71 | 159 | 2.0 | 3.0 | 0.00 | 0.17 | 0.17 | 99 | 1017.3 |
| 20260902172446 | 71 | 211 | 1.0 | 2.0 | 0.00 | 0.17 | 0.17 | 99 | 1017.4 |
| 20260902171942 | 71 | 234 | 2.0 | 4.0 | 0.00 | 0.17 | 0.17 | 99 | 1017.5 |
| 20260902171437 | 70 | 243 | 3.0 | 4.0 | 0.00 | 0.17 | 0.17 | 99 | 1017.6 |
| 20260902170933 | 71 | 97 | 3.0 | 6.0 | 0.00 | 0.17 | 0.17 | 99 | 1017.6 |
| 20260902170428 | 71 | 82 | 2.0 | 4.0 | 0.00 | 0.17 | 0.17 | 99 | 1017.6 |
| 20260902165924 | 71 | 291 | 1.0 | 3.0 | 0.00 | 0.17 | 0.17 | 99 | 1017.7 |